Tracking 33198 objects as of 13-Feb-2026
HD Live streaming from Space Station
objects crossing your sky now

SL-8 DEB

Track SL-8 DEB now!
10-day predictions


NORAD ID: 10526
Int'l Code: 1977-116D
Perigee: 951.9 km
Apogee: 997.4 km
Inclination: 65.8 °
Period: 104.4 minutes
Semi major axis: 7345 km
RCS: 0.1839 m2 (medium)
Launch date: December 13, 1977
Source: Commonwealth of Independent States (former USSR) (CIS)
Launch site: PLESETSK MISSILE AND SPACE COMPLEX (PKMTR)

Note: This is SATELLITE DEBRIS
Your satellite tracking list
Your tracking list is empty




NASA's NSSDC Master Catalog

Two Line Element Set (TLE):
1 10526U 77116D   26044.49747134  .00000168  00000-0  24334-3 0  9995
2 10526  65.8350   8.0869 0030964 348.4410 129.2093 13.78966631419651
Source of the keplerian elements: AFSPC